Theta_e
316 317 330 334 342 345 350 350 346 347 351 348 347 350 349 349 352 351 348 350 347 346 340 333 339 342 335 331 340 346 346 344 340 335 330 326 331 336 336 337 336 335 334 334 334 334 334 335 334
315 329 332 330 335 341 344 342 352 352 349 347 348 348 348 352 352 351 350 349 346 344 338 336 340 330 330 335 345 346 343 341 333 325 322 323 327 334 333 334 334 333 334 333 332 331 331 331 332
318 324 334 332 331 337 339 344 350 345 348 348 349 348 348 356 351 350 350 348 345 342 338 342 337 329 331 339 345 343 342 333 324 320 321 323 326 325 324 324 330 333 332 331 329 324 327 329 328
328 328 326 329 330 329 336 346 352 351 343 343 349 355 348 350 351 351 349 346 344 341 339 343 331 330 336 344 344 343 337 327 321 321 322 323 323 321 318 318 328 328 321 318 322 320 318 316 321
326 318 325 327 327 328 331 348 348 346 340 339 347 354 352 350 351 350 348 344 343 339 340 338 331 331 341 345 342 341 332 323 320 321 322 321 321 318 315 313 314 313 314 322 322 320 321 326 330
320 317 321 321 323 325 344 346 347 345 338 339 347 353 351 350 350 348 347 345 340 333 336 333 329 335 345 343 342 336 329 321 320 321 321 321 322 319 314 313 312 312 323 325 325 325 326 330 337
324 318 321 321 321 322 342 340 340 340 339 339 338 351 346 349 348 347 347 345 341 334 334 330 329 343 346 341 339 333 325 320 320 321 325 327 324 322 314 314 314 322 323 323 323 324 325 327 338
317 315 317 316 318 330 337 344 343 342 345 337 340 347 345 346 345 346 346 345 338 336 334 327 328 343 344 341 339 331 322 320 321 324 328 330 327 323 321 321 319 321 322 323 324 325 326 326 335
314 316 315 317 320 322 328 342 341 341 339 341 343 342 341 346 345 346 346 345 342 340 334 327 330 343 343 339 336 327 322 321 327 328 331 332 330 325 324 324 324 323 323 322 323 322 323 328 333
315 311 315 316 318 322 327 342 344 348 348 346 345 345 339 345 346 347 345 345 344 342 334 328 333 340 340 338 334 325 324 322 330 331 332 332 331 326 326 326 325 325 325 323 322 321 322 331 331
316 315 315 317 316 321 324 340 340 343 339 337 340 349 344 346 344 345 345 345 344 340 337 329 331 338 339 338 332 326 331 331 331 332 333 333 327 326 328 328 327 326 326 323 321 321 321 324 329
317 315 316 316 317 320 321 332 341 340 337 334 343 343 342 339 336 340 343 345 344 343 341 335 331 342 340 336 332 333 338 336 334 334 332 330 328 328 327 325 325 326 326 323 322 321 321 321 325
315 316 317 316 316 317 320 319 322 338 340 341 343 344 345 345 343 340 337 343 343 343 342 339 341 344 343 335 334 337 338 338 335 333 330 329 330 328 326 324 324 324 325 324 323 323 321 321 322
316 318 317 316 315 316 320 319 322 338 335 342 345 338 342 343 344 340 337 335 341 343 342 340 340 342 343 341 338 338 338 338 335 334 332 331 330 328 324 324 325 323 324 325 324 324 322 321 320
317 318 314 315 317 318 318 319 320 338 335 345 341 332 330 332 337 340 336 336 341 341 341 338 339 341 342 339 340 339 338 337 334 333 332 329 330 328 326 325 323 322 322 322 324 323 322 321 321
317 314 314 314 317 319 316 333 334 338 338 345 338 334 336 335 335 339 337 336 338 339 341 343 343 342 339 338 338 337 336 335 334 334 332 329 328 325 325 324 322 321 321 323 323 324 323 325 321
313 315 315 315 318 320 322 330 333 336 341 343 341 338 335 335 333 335 337 337 339 339 342 343 343 342 340 339 338 337 337 336 335 332 331 329 326 324 323 321 320 317 320 321 322 323 322 323 321
316 316 315 319 326 329 331 332 332 330 338 338 336 333 333 339 336 338 340 339 341 339 340 341 343 343 343 341 340 337 336 336 335 333 331 328 326 324 322 319 314 319 319 320 321 321 320 319 317
318 317 318 321 326 331 333 334 333 330 329 336 337 338 333 335 339 338 340 341 342 341 342 342 342 343 343 342 339 336 335 334 333 332 332 329 326 323 322 320 320 318 323 322 320 320 319 316 317
318 321 322 321 328 333 334 335 333 332 331 330 338 338 345 335 330 344 345 343 342 342 342 343 343 343 343 342 341 339 336 334 333 333 331 329 326 323 320 320 322 317 316 319 319 320 319 321 319
321 321 321 323 330 331 332 332 334 334 333 335 335 337 337 340 330 349 345 344 344 342 342 343 344 344 343 342 341 338 335 333 333 333 332 331 327 322 321 328 318 318 316 317 319 319 319 319 317
323 323 322 322 318 321 329 326 332 334 334 337 332 331 332 349 349 346 346 345 344 344 344 344 345 345 344 343 341 340 338 335 333 331 331 329 328 323 323 326 318 316 316 316 320 319 319 318 315
324 323 323 323 322 321 329 330 328 336 332 333 329 330 332 346 347 347 346 346 344 346 345 340 337 344 343 342 341 339 337 336 333 333 329 328 327 324 323 324 320 316 316 318 317 316 317 316 315
323 323 321 322 322 326 327 331 335 337 333 331 335 333 335 344 343 345 346 347 346 346 345 343 344 344 343 342 341 339 336 334 334 331 329 328 327 326 324 324 320 317 318 316 316 316 315 314 316
323 320 323 327 332 336 333 333 330 333 334 331 333 333 340 340 340 341 342 344 345 345 345 345 344 343 343 342 341 338 337 336 335 333 332 329 327 326 327 326 321 318 318 315 315 315 315 315 316
325 323 322 332 333 330 332 335 329 333 332 332 333 338 339 338 338 340 340 343 344 344 343 343 342 341 341 341 339 339 338 337 336 335 333 332 329 328 327 326 321 320 318 315 314 316 316 316 315
322 321 320 326 323 330 331 333 331 331 331 331 337 338 340 339 338 337 339 342 343 342 342 340 341 342 343 342 340 340 338 338 335 334 334 333 330 328 327 324 321 319 318 317 316 316 315 316 315
320 320 320 317 326 332 331 334 332 331 330 331 334 335 338 338 339 338 337 342 343 342 342 342 342 342 342 342 342 341 340 339 336 335 334 333 331 330 328 326 323 321 318 319 318 315 315 315 316
320 321 318 318 322 324 328 328 324 328 326 332 329 330 331 333 335 336 338 341 344 343 343 342 343 343 343 343 342 342 341 340 336 336 335 335 334 332 330 326 324 321 319 320 320 318 316 313 315
323 322 318 318 321 325 327 326 320 327 327 324 324 327 326 330 330 332 335 340 342 343 344 344 344 344 344 343 342 341 340 339 337 336 334 332 332 332 331 328 325 323 320 321 320 319 317 315 315
Wind_Speed
6 5 2 3 4 4 2 4 2 9 13 17 12 7 7 6 2 2 8 16 29 28 23 20 19 19 18 18 18 18 17 14 14 13 13 14 15 14 14 13 13 12 12 12 12 11 10 11 11
3 1 2 2 3 3 5 3 16 14 10 11 9 6 7 5 7 10 11 22 30 28 24 22 19 19 19 19 19 16 13 13 13 13 15 15 15 14 13 12 12 13 13 12 12 11 11 12 12
1 3 3 3 3 4 5 10 14 15 17 4 4 4 4 6 13 8 16 27 27 25 22 20 19 19 20 21 18 14 12 12 14 14 14 14 14 13 12 12 13 13 12 12 11 11 11 13 13
3 4 4 2 5 10 5 12 17 10 7 10 9 4 5 7 9 18 29 27 25 23 21 19 19 19 20 18 16 13 12 12 14 14 13 13 12 12 12 13 13 12 13 13 12 12 13 16 18
2 3 1 2 7 8 4 15 5 8 3 5 5 7 3 6 24 35 28 28 28 25 22 19 19 20 20 17 15 13 13 14 13 13 13 12 11 12 13 13 13 14 16 16 16 18 20 21 19
3 3 3 3 4 5 6 15 14 6 3 5 6 6 1 29 38 33 31 28 27 28 24 21 19 19 18 15 14 13 13 14 13 12 13 13 15 14 13 13 13 15 17 17 17 18 20 25 22
4 4 3 5 6 6 8 7 14 12 10 5 3 4 4 16 30 35 32 31 29 28 26 23 22 21 19 16 14 13 14 14 12 13 13 14 15 16 16 16 16 18 17 16 15 14 15 21 25
5 4 5 3 4 4 7 8 14 14 7 7 5 6 5 11 25 26 29 31 30 28 27 25 25 23 21 16 13 13 13 12 11 13 13 12 12 15 16 17 17 17 16 18 19 17 14 19 19
4 3 4 5 5 8 9 10 2 4 10 5 7 7 19 28 29 29 24 22 25 26 26 27 28 24 21 16 13 12 12 11 11 11 10 9 9 10 12 12 13 12 13 15 17 20 20 18 22
3 4 6 5 2 8 11 7 8 5 9 3 4 4 13 20 31 27 23 21 21 27 29 28 28 25 23 18 15 13 12 11 12 10 8 6 6 6 7 5 6 8 7 10 11 17 22 24 22
2 5 5 8 8 6 5 13 5 15 3 13 12 9 14 15 24 23 25 30 36 33 30 30 28 24 24 22 20 18 16 15 12 8 6 6 4 5 1 1 1 2 5 10 11 15 23 22 17
2 9 4 7 3 4 5 17 11 6 13 11 13 14 20 18 17 9 20 24 25 29 31 28 28 27 23 20 21 20 18 15 12 8 7 7 7 5 3 3 3 5 5 11 11 10 14 21 20
6 6 2 6 5 4 2 6 6 9 8 13 17 19 18 8 10 23 16 29 29 31 30 30 30 28 25 21 22 20 17 15 13 12 8 8 6 4 3 3 4 6 6 9 7 7 8 11 19
4 1 6 5 9 4 2 5 5 4 22 16 20 20 21 19 22 22 13 24 31 31 30 30 30 28 26 21 19 18 17 15 16 12 8 6 6 4 4 3 2 6 7 7 8 5 10 11 13
5 4 7 9 4 4 4 11 12 12 18 17 13 12 13 23 33 23 16 17 37 34 31 26 31 30 22 20 21 16 17 21 15 11 6 5 4 3 3 3 5 5 2 5 8 5 12 13 14
6 4 3 8 2 1 10 10 20 15 21 16 11 8 6 13 23 13 18 17 28 36 33 30 32 24 24 23 24 20 17 15 12 7 4 3 3 3 4 4 5 3 3 2 4 3 4 10 12
6 3 4 8 2 3 8 3 8 14 18 14 12 9 7 8 18 20 19 13 26 41 37 35 32 27 24 21 18 16 14 11 8 5 2 2 5 4 2 3 1 1 5 3 2 2 5 9 7
6 3 5 3 5 11 9 6 3 6 11 10 13 9 10 12 18 22 18 9 28 37 35 32 29 27 25 21 19 17 14 10 6 5 8 7 6 5 4 4 6 6 3 3 5 5 5 5 6
4 7 9 5 5 9 8 6 4 5 6 9 10 9 16 17 15 20 12 12 31 32 29 30 29 28 27 24 21 17 15 11 8 8 8 10 10 10 8 5 3 2 1 3 2 4 3 4 5
6 4 4 5 5 10 1 4 5 5 4 2 7 13 13 18 13 15 10 24 35 36 34 32 31 29 25 24 21 17 16 12 8 9 8 8 10 11 8 7 4 2 2 3 1 3 2 2 1
6 5 3 8 3 7 4 6 6 3 5 7 2 7 9 18 18 7 8 20 26 32 28 29 28 28 25 21 19 12 12 7 10 11 11 10 11 11 10 7 4 3 3 4 4 2 4 3 3
4 0 5 5 4 4 3 5 5 4 9 4 5 9 7 12 8 7 11 19 24 26 25 25 24 26 26 24 19 13 13 10 11 11 12 11 14 14 12 9 5 3 3 6 6 3 3 5 5
3 5 4 2 4 4 2 4 7 4 5 4 5 3 3 5 11 12 15 17 25 26 30 18 21 26 22 18 12 13 10 8 9 10 10 8 14 15 13 10 8 6 6 6 5 6 6 3 3
3 5 7 5 4 2 2 5 5 5 6 3 2 2 3 6 8 10 20 21 22 22 19 16 17 21 19 16 14 12 9 10 11 11 10 10 13 16 15 13 11 9 9 9 8 7 7 6 4
8 7 4 5 4 6 1 2 7 6 5 5 7 8 8 7 7 8 8 16 20 20 19 17 18 20 18 17 16 14 12 10 11 9 9 9 12 17 16 15 16 13 10 9 7 8 7 7 6
3 7 5 2 2 5 5 1 5 7 6 6 9 8 7 8 7 8 11 20 24 23 21 19 17 16 17 18 18 16 16 14 12 13 13 13 10 12 10 14 16 14 11 10 9 9 7 7 8
1 2 5 5 2 3 3 2 5 7 6 7 10 9 10 10 9 9 12 19 22 24 25 24 22 19 19 19 18 17 16 14 13 13 13 12 11 10 11 12 15 16 14 12 12 11 11 10 10
5 3 4 4 2 1 4 2 4 4 9 14 13 15 12 11 10 9 11 20 25 26 25 24 22 22 20 20 19 18 17 15 13 12 13 13 12 13 14 16 16 17 17 15 15 14 12 11 13
4 3 5 5 4 4 1 5 6 10 12 16 11 15 13 13 11 9 12 23 28 27 26 26 24 21 20 21 18 18 16 15 12 13 12 12 13 15 18 17 17 20 19 18 18 15 14 15 16
2 4 5 5 4 2 3 5 8 6 7 9 12 15 9 11 10 10 15 21 20 24 25 24 24 25 23 18 17 16 13 12 12 11 11 14 15 15 17 19 19 19 21 20 20 18 19 18 20
Wind_Direction
306 295 347 15 29 55 322 248 271 354 67 62 59 69 117 30 15 187 127 168 157 151 154 150 143 134 129 124 121 115 118 110 102 96 93 92 86 80 79 79 74 68 62 57 51 46 41 35 31
271 313 0 71 80 31 283 266 74 75 64 69 85 79 52 74 62 112 98 146 153 150 153 147 144 134 130 127 120 121 116 111 103 99 98 93 89 86 79 73 68 65 62 57 51 46 40 38 31
206 169 82 120 137 179 216 106 121 87 85 80 73 357 90 117 127 127 145 154 150 150 151 144 143 135 133 130 128 127 118 111 107 104 96 92 89 83 75 66 66 65 58 50 46 45 42 39 38
132 35 10 77 252 264 223 112 131 128 35 79 148 57 72 174 132 150 153 157 152 150 149 149 143 139 135 131 138 135 126 116 113 106 98 93 88 77 67 66 68 62 55 53 47 50 55 64 67
157 70 73 213 257 268 204 144 189 95 99 200 140 121 103 84 140 147 155 159 155 154 154 152 148 144 139 146 142 140 130 126 118 107 101 98 88 80 69 66 68 66 70 65 61 66 72 67 54
38 102 58 270 257 294 56 127 114 93 145 334 51 99 32 138 139 151 158 158 159 156 157 153 151 146 146 153 150 145 141 135 125 116 113 105 88 76 72 74 76 81 85 71 65 66 66 60 75
131 79 237 298 295 324 159 101 115 138 147 184 62 71 350 151 153 156 163 158 163 161 157 157 156 151 164 161 160 157 149 139 131 126 116 105 91 72 73 78 83 86 81 65 52 50 54 63 97
111 92 336 306 289 273 164 124 142 140 162 121 185 153 193 175 160 156 163 159 163 164 163 161 162 165 173 167 169 160 151 141 132 133 121 110 96 76 80 85 91 89 76 61 51 45 47 70 116
114 58 291 263 337 293 129 114 240 62 128 220 204 181 171 165 156 145 148 151 161 167 172 171 170 170 173 173 173 163 153 143 138 137 134 132 111 94 87 87 90 84 75 67 59 46 50 80 127
96 118 243 209 250 276 111 109 140 115 157 238 229 215 175 164 148 151 158 161 170 175 179 181 177 174 172 176 174 166 155 153 142 147 161 149 141 120 86 84 101 92 80 74 65 63 72 94 113
215 205 205 281 264 246 95 141 124 138 246 181 189 149 153 162 159 163 172 174 181 182 181 186 181 181 181 179 174 168 161 158 159 160 172 175 170 164 149 189 88 115 81 105 98 86 78 95 105
226 249 185 271 283 40 339 134 157 178 199 151 66 82 64 34 36 296 187 188 179 180 183 185 183 182 182 188 180 169 167 165 168 162 162 175 178 175 170 158 81 142 136 130 102 104 94 85 109
190 264 321 277 317 298 302 332 131 200 120 106 109 102 98 84 267 211 235 197 178 182 186 186 185 185 187 190 181 178 179 175 168 164 165 169 196 179 169 190 136 123 152 155 118 133 108 100 96
289 298 324 315 308 312 303 294 102 15 111 115 120 127 139 167 220 221 183 184 173 181 186 189 187 193 191 192 188 187 189 187 176 181 179 182 186 192 162 163 179 148 123 141 150 128 150 123 120
311 328 349 302 288 288 139 24 4 127 118 126 136 165 171 177 208 223 167 159 164 178 185 183 188 195 187 189 199 199 181 177 177 172 173 187 191 215 217 231 164 159 201 192 147 143 155 147 136
352 54 42 283 238 301 76 5 13 143 124 124 157 230 210 224 224 204 170 148 169 168 157 152 167 156 153 152 161 165 163 166 165 171 178 194 192 195 213 180 151 150 150 134 165 171 60 183 165
2 252 219 314 272 94 90 137 352 103 118 147 178 200 235 3 297 282 189 151 170 165 160 153 158 152 154 155 162 167 167 171 155 135 173 185 188 216 182 143 351 312 185 232 246 203 118 125 117
238 232 242 170 323 90 99 151 161 95 126 164 172 184 180 211 228 255 213 154 176 171 174 168 162 164 165 163 160 160 161 164 173 204 205 197 204 221 198 124 72 76 222 200 166 163 138 130 88
242 267 160 176 183 82 134 106 350 351 153 153 153 169 218 225 330 314 276 186 177 168 167 172 173 175 174 165 161 163 164 173 188 205 206 198 206 212 207 145 121 142 117 98 137 176 185 113 122
179 41 53 59 152 101 270 58 305 346 353 9 32 83 84 88 346 292 172 157 179 166 171 179 182 179 183 189 182 185 176 188 202 215 211 216 209 212 210 203 176 211 215 219 259 265 208 117 110
1 133 200 163 87 24 91 347 343 330 321 351 339 121 81 137 185 175 172 149 169 175 177 179 183 178 185 186 184 163 181 183 201 213 221 243 225 208 217 225 204 235 261 229 212 223 204 182 109
46 120 65 84 98 206 152 257 286 329 318 320 309 56 46 129 142 116 149 158 162 178 178 179 184 181 191 198 193 198 200 200 220 234 232 236 232 216 219 231 235 260 272 226 198 211 191 183 201
197 63 56 354 31 79 347 97 271 43 314 287 302 32 58 142 125 129 125 153 174 180 182 188 182 191 198 194 203 201 210 215 219 230 218 225 226 223 224 231 232 219 226 205 208 213 206 228 192
153 59 36 47 72 352 145 143 270 206 207 218 255 251 215 146 121 119 120 136 167 180 188 183 186 192 189 193 197 202 206 203 203 208 217 235 220 220 222 236 226 223 229 224 217 213 210 211 188
63 57 357 4 9 232 57 66 245 207 221 212 190 231 183 168 127 128 141 144 158 168 175 175 178 181 189 197 201 206 210 221 224 238 248 234 221 221 226 223 221 224 225 221 221 214 213 205 202
85 128 143 195 230 266 306 41 285 183 177 236 194 200 180 146 172 175 172 170 174 178 181 184 187 190 197 204 209 216 214 225 233 229 238 241 245 228 222 227 223 223 230 219 212 208 215 213 210
353 76 183 128 24 68 267 288 347 83 171 211 199 188 191 189 184 189 192 189 188 186 184 182 185 195 203 209 215 220 224 230 237 237 238 241 243 230 213 212 218 219 217 214 215 216 213 224 232
144 192 45 14 94 315 319 302 229 181 212 211 193 203 200 205 186 198 194 196 198 197 194 192 189 193 203 208 216 223 236 238 239 246 249 243 243 241 237 228 222 219 216 217 219 222 222 219 235
14 25 62 110 117 150 178 265 235 205 204 199 205 209 195 202 195 199 199 205 205 205 204 203 200 201 206 206 209 219 233 238 252 253 264 259 257 247 239 240 228 224 222 221 221 232 234 233 229
109 127 107 108 276 91 141 268 316 207 256 220 208 222 212 206 195 201 202 204 209 213 210 208 210 212 212 207 205 213 220 224 242 248 274 279 271 259 246 244 241 233 225 225 226 233 233 238 234